loading
|

APEX ARIES 1, 59129

Orbit data source: Space-Track

APEX ARIES 1, 59129 is a payload satellite owned by Apex (US) in SSO that was launched on Mon, 04 Mar 2024 UTC via an FALCON 9 launch vehicle from the Air Force Western Test Range (AFWTR). Aries 1 is the flagship mission for Apex’s Aries standardized satellite bus platform, carrying a “selfie camera” as well a handful of hosted payloads. Apex’s standardized satellite bus platforms enable missions like Earth observation, communication networks, scientific research, and more!

Loading next visibility...
Loading greatness...
APEX ARIES 1 details
Identifier
59129, 2024-043AH
Orbit
SSO
Last TLE update11 hours ago
Origin
Flag of USApex (US)
ManufacturerApex
Mission statusOperational
MissionCommercial Radar Imaging
Bus & MotorARIES, Unknown motor
Mass200 kg wet, 200 kg dry
Launch date (UTC)
2024-03-04 (6 months ago)
Launch vehicle
FALCON 9
Launch site
Air Force Western Test Range (AFWTR)
Object type
Payload
Rocket body
Debris
Radar Cross SectionMedium (>0.1 m² and <1 m²)

Expand to show TLE details & history

TLE from 11 hours ago
0 APEX ARIES 1
1 59129U 24043AH  24258.85597471  .00021878  00000-0  93821-3 0  9998
2 59129  97.4828  22.0910 0010405 336.6463  23.4299 15.22707502 29440
Epoch: 2024-09-14T20:32Z
Definitive object data (Epoch: 2024-09-14T20:32:36.214Z)
Latitude-0.00009°
Longitude79.63243°
Altitude494.205 km
Speed7.621 km/s
True Right ascension01h 28m 21s
True Declination0° 00' 00"
Sunlit
Object was in full shadow at TLE epoch
Predictive object data (real-time)
Latitude-32.71917°
Longitude84.8985°
Altitude502.933 km
Speed7.615 km/s
Apparent Right ascension05h 37m 46s
Apparent Declination-71° 42' 04"
Sunlit
Object is in full shadow
Predictive observer data (real-time)
Local Sidereal Time00:04:55
Azimuth157.482° SSE
Elevation-35.503°
Doppler factor1
Orbital elements
Apogee501.795 km
Perigee487.492 km
Semi-major axis6,872.781 km
Eccentricity0.0010405
Inclination97.4828°
RAAN22.091°
Arg. of periapsis336.6463°
True anomaly23.47737°
Mean anomaly23.4299°
Eccentric anomaly23.45363°
Mean motion3.80929 °/min
BSTAR0.00093821
Period94.51 mins
No data available

APEX ARIES 1 Visibility forecast

Observer location: 39.9160978°, -105.1181434

APEX ARIES 1 is not visible in the next 10 days
Span
Click to sort rows by Start time (UTC) header in descending order
Start Az.
Max El. time (UTC)
Max El. Az.
Max El.
End time (UTC)
End Az.